THOR ABLESTAR DEB, 264

Orbit data source: Space-Track

THOR ABLESTAR DEB, 264 is space debris in LEO originally from a launch on Thu, 29 Jun 1961 UTC launched from the Air Force Eastern Test Range (AFETR). Debris objects in space refer to the collection of defunct objects orbiting the Earth. Examples of debris include non-operational satellites, rocket bodies, and fragments generated from explosions, collisions, or faulty payload assembly.

Loading next visibility...
Identifier
264, 1961-015CL
Orbit
LEO
Country
Flag of USUS
Related business
Manufacturer
Unknown
Mission
Spacecraft
Bus & Motor
Unknown
Mass
Unknown
Launch date (UTC)
1961-06-29 (65 years ago)
Launch vehicle
Unknown
Launch site
Air Force Eastern Test Range (AFETR)
Object type
Payload
Rocket body
Debris
Shape & HBR
Unknown shape, 0.3 m
Radar Cross Section
Medium (>0.1 m² and <1 m²)

Expand to show TLE details & history
Last TLE update: 10 hours ago

TLE from 10 hours ago
0 THOR ABLESTAR DEB
1 00264U 61015CL  26266.57234536  .00001197  00000-0  41118-3 0  9998
2 00264  66.5242 329.3263 0027091 303.7452  56.1068 14.39375630347810
Epoch: 2026-09-23T13:44Z
TLE epoch observation values (Epoch: 2026-09-23T13:44:10.639Z)
Latitude
-0.00003°
Longitude
120.86042°
Altitude
751.915 km
Speed
7.485 km/s
True Right ascension
21h 57m 18s
True Declination
0° 00' 00"
Sunlit
Object was in full shadow at epoch
Visualization orbit readout
Latitude
Unknown
Longitude
Unknown
Altitude
Unknown
Speed
Unknown
Apparent Right ascension
Unknown
Apparent Declination
Unknown
Sunlit
N/A
Visualization observer readout
Local Sidereal Time
16:56:01
Azimuth
Unknown
Elevation
Unknown
Doppler factor
Unknown
Orbital elements
Apogee altitude
778.286 km
Perigee altitude
739.616 km
Semi-major axis
7,137.088 km
Eccentricity
0.00271
Inclination
66.5242°
RAAN
329.3263°
Arg. of periapsis
303.7452°
True anomaly
56.36498°
Mean anomaly
56.1068°
Eccentric anomaly
56.23584°
Mean motion
3.59966 °/min
Orbital period
100.01 mins
BSTAR
0.00041118

Documentation

Showing up to 5 results
|